• In Uzbekistan
  • List of Countries
  • For 7 days
  • Water Temperature
  • Satellite Maps
  • Weather Map
  • Weather Widgets
  • user-avatar
    Login

    Hourly Weather Nkongsamba

    Today, 20 October, Saturday

    Time Temperature Precipitation Wind Pressure Humidity
    00:00 +21°C° 0 mm 1 mps 684 mmHg 88%
    01:00 +21°C° 0 mm 1 mps 684 mmHg 89%
    02:00 +21°C° 0 mm 1 mps 683 mmHg 89%
    03:00 +21°C° 0 mm 1 mps 683 mmHg 88%
    04:00 +20°C° 0 mm 1 mps 683 mmHg 88%
    05:00 +21°C° 0 mm 1 mps 684 mmHg 87%
    06:00 +21°C° 0 mm 1 mps 684 mmHg 86%
    07:00 +22°C° 0 mm 1 mps 684 mmHg 85%
    08:00 +24°C° 0 mm 1 mps 685 mmHg 76%
    09:00 +27°C° 0 mm 1 mps 686 mmHg 67%
    10:00 +29°C° 0 mm 2 mps 686 mmHg 58%
    11:00 +30°C° 0.5 mm 2 mps 686 mmHg 57%
    12:00 +30°C° 0.5 mm 2 mps 685 mmHg 56%
    13:00 +31°C° 0.5 mm 2 mps 685 mmHg 55%
    14:00 +30°C° 0.8 mm 2 mps 685 mmHg 59%
    15:00 +30°C° 0.8 mm 2 mps 684 mmHg 62%
    16:00 +29°C° 0.8 mm 1 mps 684 mmHg 65%
    17:00 +27°C° 0.5 mm 1 mps 684 mmHg 72%
    18:00 +25°C° 0.5 mm 1 mps 684 mmHg 78%
    19:00 +23°C° 0.5 mm 1 mps 684 mmHg 85%
    20:00 +23°C° 0 mm 1 mps 684 mmHg 86%
    21:00 +22°C° 0 mm 1 mps 684 mmHg 88%
    22:00 +22°C° 0 mm 1 mps 685 mmHg 90%
    23:00 +22°C° 0 mm 1 mps 684 mmHg 90%

    Tomorrow, 21 October, Sunday

    Time Temperature Precipitation Wind Pressure Humidity
    00:00 +21°C° 0 mm 1 mps 684 mmHg 90%
    01:00 +21°C° 0 mm 1 mps 684 mmHg 91%
    02:00 +21°C° 0 mm 1 mps 684 mmHg 91%
    03:00 +21°C° 0 mm 1 mps 683 mmHg 91%
    04:00 +21°C° 0 mm 1 mps 683 mmHg 92%
    05:00 +21°C° 0 mm 1 mps 683 mmHg 90%
    06:00 +21°C° 0 mm 1 mps 684 mmHg 89%
    07:00 +22°C° 0 mm 1 mps 684 mmHg 88%
    08:00 +24°C° 0.1 mm 1 mps 685 mmHg 80%
    09:00 +26°C° 0.1 mm 1 mps 685 mmHg 72%
    10:00 +28°C° 0.1 mm 2 mps 686 mmHg 64%
    11:00 +29°C° 0.4 mm 2 mps 686 mmHg 62%
    12:00 +30°C° 0.4 mm 2 mps 685 mmHg 60%
    13:00 +31°C° 0.4 mm 2 mps 684 mmHg 57%
    14:00 +30°C° 0.9 mm 2 mps 684 mmHg 61%
    15:00 +29°C° 0.9 mm 2 mps 684 mmHg 66%
    16:00 +29°C° 0.9 mm 1 mps 683 mmHg 70%
    17:00 +27°C° 0.8 mm 1 mps 683 mmHg 77%
    18:00 +25°C° 0.8 mm 1 mps 684 mmHg 84%
    19:00 +23°C° 0.8 mm 1 mps 684 mmHg 91%
    20:00 +23°C° 0.8 mm 1 mps 684 mmHg 92%
    21:00 +22°C° 0.8 mm 1 mps 685 mmHg 92%
    22:00 +22°C° 0.8 mm 1 mps 685 mmHg 93%
    23:00 +22°C° 0.1 mm 1 mps 685 mmHg 93%

    Day after tomorrow, 22 October, Monday

    Time Temperature Precipitation Wind Pressure Humidity
    00:00 +22°C° 0.1 mm 1 mps 685 mmHg 93%
    01:00 +19°C° 0.1 mm 0 mps 684 mmHg 93%
    02:00 +19°C° 0 mm 0 mps 684 mmHg 94%
    03:00 +19°C° 0 mm 0 mps 683 mmHg 94%
    04:00 +19°C° 0 mm 0 mps 683 mmHg 94%
    05:00 +19°C° 0 mm 0 mps 684 mmHg 93%
    06:00 +20°C° 0 mm 0 mps 684 mmHg 92%
    07:00 +20°C° 0 mm 0 mps 685 mmHg 91%
    08:00 +22°C° 0.6 mm 0 mps 685 mmHg 83%
    09:00 +26°C° 0.6 mm 1 mps 686 mmHg 75%
    10:00 +28°C° 0.6 mm 1 mps 687 mmHg 68%
    11:00 +29°C° 0.9 mm 1 mps 686 mmHg 66%
    12:00 +29°C° 0.9 mm 1 mps 685 mmHg 65%
    13:00 +30°C° 0.9 mm 1 mps 685 mmHg 64%
    14:00 +29°C° 1.4 mm 1 mps 684 mmHg 68%
    15:00 +29°C° 1.4 mm 1 mps 684 mmHg 72%
    16:00 +28°C° 1.4 mm 1 mps 683 mmHg 76%
    17:00 +26°C° 1.3 mm 1 mps 684 mmHg 81%
    18:00 +24°C° 1.3 mm 1 mps 684 mmHg 87%
    19:00 +23°C° 1.3 mm 1 mps 684 mmHg 92%
    20:00 +23°C° 1.2 mm 1 mps 685 mmHg 93%
    21:00 +22°C° 1.2 mm 1 mps 685 mmHg 93%
    22:00 +22°C° 1.2 mm 1 mps 685 mmHg 94%
    23:00 +22°C° 0.4 mm 1 mps 685 mmHg 94%

    23 October, Tuesday

    Time Temperature Precipitation Wind Pressure Humidity
    00:00 +22°C° 0.4 mm 1 mps 685 mmHg 94%
    01:00 +21°C° 0.4 mm 1 mps 685 mmHg 94%
    02:00 +21°C° 0.1 mm 1 mps 684 mmHg 94%
    03:00 +21°C° 0.1 mm 1 mps 684 mmHg 94%
    04:00 +21°C° 0.1 mm 1 mps 684 mmHg 94%
    05:00 +21°C° 0 mm 1 mps 684 mmHg 93%
    06:00 +21°C° 0 mm 1 mps 685 mmHg 92%
    07:00 +20°C° 0 mm 0 mps 685 mmHg 90%
    08:00 +24°C° 0 mm 1 mps 686 mmHg 80%
    09:00 +27°C° 0 mm 1 mps 687 mmHg 70%
    10:00 +29°C° 0 mm 1 mps 687 mmHg 60%
    11:00 +30°C° 0.3 mm 1 mps 687 mmHg 59%
    12:00 +30°C° 0.3 mm 1 mps 686 mmHg 57%
    13:00 +31°C° 0.3 mm 1 mps 685 mmHg 56%
    14:00 +30°C° 1.6 mm 1 mps 685 mmHg 61%
    15:00 +29°C° 1.6 mm 1 mps 684 mmHg 66%
    16:00 +29°C° 1.6 mm 1 mps 684 mmHg 71%
    17:00 +27°C° 1.3 mm 1 mps 684 mmHg 78%
    18:00 +25°C° 1.3 mm 1 mps 685 mmHg 85%
    19:00 +23°C° 1.3 mm 1 mps 685 mmHg 91%
    20:00 +21°C° 1.3 mm 0 mps 685 mmHg 92%
    21:00 +21°C° 1.3 mm 0 mps 685 mmHg 93%
    22:00 +20°C° 1.3 mm 0 mps 686 mmHg 94%
    23:00 +20°C° 1.3 mm 0 mps 685 mmHg 95%

    24 October, Wednesday

    Time Temperature Precipitation Wind Pressure Humidity
    00:00 +20°C° 1.3 mm 0 mps 685 mmHg 95%
    01:00 +20°C° 1.3 mm 0 mps 685 mmHg 95%
    02:00 +20°C° 0.6 mm 0 mps 685 mmHg 95%
    03:00 +19°C° 0.6 mm 0 mps 684 mmHg 94%
    04:00 +19°C° 0.6 mm 0 mps 684 mmHg 94%
    05:00 +19°C° 0.4 mm 0 mps 685 mmHg 93%
    06:00 +20°C° 0.4 mm 0 mps 685 mmHg 93%
    07:00 +20°C° 0.4 mm 0 mps 686 mmHg 92%
    08:00 +22°C° 0.1 mm 0 mps 686 mmHg 84%
    09:00 +26°C° 0.1 mm 1 mps 687 mmHg 77%
    10:00 +27°C° 0.1 mm 1 mps 687 mmHg 69%
    11:00 +28°C° 0.3 mm 1 mps 687 mmHg 66%
    12:00 +29°C° 0.3 mm 1 mps 686 mmHg 62%
    13:00 +30°C° 0.3 mm 1 mps 685 mmHg 59%
    14:00 +29°C° 0.4 mm 1 mps 685 mmHg 62%
    15:00 +29°C° 0.4 mm 1 mps 684 mmHg 65%
    16:00 +28°C° 0.4 mm 1 mps 684 mmHg 68%
    17:00 +26°C° 0.3 mm 1 mps 684 mmHg 76%
    18:00 +25°C° 0.3 mm 1 mps 684 mmHg 84%
    19:00 +21°C° 0.3 mm 0 mps 684 mmHg 92%
    20:00 +21°C° 0.1 mm 0 mps 685 mmHg 93%
    21:00 +21°C° 0.1 mm 0 mps 685 mmHg 95%
    22:00 +20°C° 0.1 mm 0 mps 685 mmHg 96%
    23:00 +20°C° 0.1 mm 0 mps 685 mmHg 96%

    25 October, Thursday

    Time Temperature Precipitation Wind Pressure Humidity
    00:00 +20°C° 0.1 mm 0 mps 685 mmHg 96%
    01:00 +20°C° 0.1 mm 0 mps 685 mmHg 96%
    02:00 +20°C° 0.1 mm 0 mps 684 mmHg 95%
    03:00 +20°C° 0.1 mm 0 mps 684 mmHg 95%
    04:00 +19°C° 0.1 mm 0 mps 684 mmHg 94%
    05:00 +20°C° 0 mm 0 mps 684 mmHg 94%
    06:00 +20°C° 0 mm 0 mps 685 mmHg 93%
    07:00 +20°C° 0 mm 0 mps 685 mmHg 92%
    08:00 +22°C° 0.2 mm 0 mps 686 mmHg 85%
    09:00 +23°C° 0.2 mm 0 mps 686 mmHg 79%
    10:00 +27°C° 0.2 mm 1 mps 687 mmHg 72%
    11:00 +28°C° 0.3 mm 1 mps 686 mmHg 67%
    12:00 +29°C° 0.3 mm 1 mps 685 mmHg 62%
    13:00 +31°C° 0.3 mm 1 mps 685 mmHg 58%
    14:00 +30°C° 0.6 mm 1 mps 685 mmHg 59%
    15:00 +30°C° 0.6 mm 1 mps 684 mmHg 61%
    16:00 +29°C° 0.6 mm 1 mps 684 mmHg 62%
    17:00 +27°C° 0.4 mm 1 mps 684 mmHg 71%
    18:00 +25°C° 0.4 mm 1 mps 684 mmHg 79%
    19:00 +21°C° 0.4 mm 0 mps 684 mmHg 88%
    20:00 +21°C° 0.5 mm 0 mps 684 mmHg 89%
    21:00 +23°C° 0.5 mm 1 mps 684 mmHg 91%
    22:00 +22°C° 0.5 mm 1 mps 685 mmHg 92%
    23:00 +22°C° 0 mm 1 mps 684 mmHg 92%
    Show more